Content
SEND FEEDBACK

Daily
Averages
Monthly
Summary
United States of America

INARAJAN, GUAM


Home > North America > United States > Guam
Elevation: 280 feet     Latitude: 13 18N     Longitude: 144 44E

WEATHER
 
SELECT A DAY
Number of Records: 356,513;   Date Range: 1/1/95 - 12/18/14
 
SHARE

PRINT THIS DATA

[ ← Previous Day ]
WEATHER ALMANAC - JANUARY 18, 2014
[ Next Day → ]
[ °C ]   °F
Weather ElementAverageHighLow
Temperature77.5 °F83.3 °F (12:58 pm) (8:58 am)
Dewpoint72.8 °F75.2 °F (1:06 am) (7:00 pm)
Humidity85.6 %94 % (1:16 am)74 % (10:58 am)
Barometer29.83 in29.89 in (11:18 pm)29.77 in (2:58 pm)
Wind Speed7.6 mph13.8 mph (5:38 am)
Wind Gust20.7 mph (5:38 am)
Weather ElementAverage
Visibility10 mi
Wind DirectionENE (80.2 °)

Weather ElementTotal
Precipitation---
Heating Degree Days23.4 (Base 65)
Averaged from 49 records on January 18, 2014
WEATHER CONDITIONS BREAKOUT
WIND DIRECTION BREAKOUT
WEATHER BY HOUR - JANUARY 18, 2014
[ °C ]   °F
Local TimeTemperatureDewpointHumidityBarometerVisibilityWind DirectionWind SpeedGust SpeedPrecipitationEventsConditions
1:06 AM78.8 °F75.2 °F89 %29.85 in10.0 miEast (90°)9.2 mph17.3 mphLight Drizzle
1:16 AM77.0 °F75.2 °F94 %29.85 in10.0 miEast (90°)9.2 mphOvercast
1:58 AM78.1 °F75.0 °F90 %29.81 in10.0 miESE (120°)10.4 mph18.4 mph0.00 inMostly Cloudy
2:43 AM78.8 °F73.4 °F83 %29.83 in10.0 miEast (80°)8.1 mphOvercast
2:58 AM78.1 °F74.7 °F89 %29.81 in10.0 miEast (100°)8.1 mphOvercast
3:13 AM78.8 °F73.4 °F83 %29.83 in10.0 miEast (100°)10.4 mphMostly Cloudy
3:58 AM78.1 °F74.5 °F89 %29.81 in10.0 miEast (100°)10.4 mphMostly Cloudy
4:08 AM78.8 °F75.2 °F89 %29.83 in10.0 miEast (80°)9.2 mphMostly Cloudy
4:28 AM77.0 °F75.2 °F94 %29.83 in10.0 miESE (110°)9.2 mphMostly Cloudy
4:33 AM77.0 °F73.4 °F89 %29.83 in10.0 miESE (110°)5.8 mphMostly Cloudy
4:43 AM77.0 °F75.2 °F94 %29.83 in10.0 miESE (110°)10.4 mphOvercast
4:48 AM77.0 °F75.2 °F94 %29.83 in10.0 miEast (90°)10.4 mphMostly Cloudy
4:53 AM77.0 °F75.2 °F94 %29.83 in10.0 miEast (90°)11.5 mph18.4 mphMostly Cloudy
4:58 AM77.7 °F74.8 °F91 %29.81 in10.0 miEast (100°)11.5 mph18.4 mphOvercast
5:08 AM77.0 °F75.2 °F94 %29.84 in10.0 miEast (90°)10.4 mph17.3 mphOvercast
5:18 AM77.0 °F75.2 °F94 %29.84 in10.0 miESE (110°)8.1 mph16.1 mphOvercast
5:23 AM77.0 °F73.4 °F89 %29.84 in10.0 miEast (100°)10.4 mphMostly Cloudy
5:28 AM77.0 °F75.2 °F94 %29.84 in10.0 miEast (90°)8.1 mph17.3 mphMostly Cloudy
5:38 AM77.0 °F73.4 °F89 %29.84 in10.0 miEast (80°)13.8 mph20.7 mphMostly Cloudy
5:58 AM77.5 °F73.0 °F86 %29.82 in10.0 miEast (90°)11.5 mphScattered Clouds
6:58 AM77.5 °F72.5 °F84 %29.84 in10.0 miEast (80°)9.2 mphPartly Cloudy
7:58 AM79.9 °F73.2 °F80 %29.86 in10.0 miEast (90°)8.1 mphMostly Cloudy
8:58 AM0.0 °F0.0 °FEast (80°)8.1 mph
8:59 AM79.9 °F73.2 °F80 %29.85 in10.0 miEast (90°)12.7 mphClear
9:58 AM82.2 °F74.1 °F76 %29.86 in10.0 miEast (100°)11.5 mph19.6 mphPartly Cloudy
10:58 AM83.1 °F73.9 °F74 %29.86 in10.0 miEast (80°)10.4 mphPartly Cloudy
11:58 AM83.1 °F74.5 °F75 %29.82 in10.0 miEast (90°)11.5 mph20.7 mphScattered Clouds
12:58 PM83.3 °F74.3 °F74 %29.81 in10.0 miEast (90°)9.2 mph18.4 mphPartly Cloudy
1:58 PM82.9 °F74.3 °F75 %29.78 in10.0 miEast (100°)9.2 mphScattered Clouds
2:43 PM82.4 °F73.4 °F74 %29.80 in10.0 miEast (100°)9.2 mphMostly Cloudy
2:53 PM82.4 °F73.4 °F74 %29.80 in10.0 miEast (90°)8.1 mphScattered Clouds
2:58 PM82.0 °F74.3 °F77 %29.77 in10.0 miEast (90°)9.2 mphMostly Cloudy
3:03 PM82.4 °F73.4 °F74 %29.80 in10.0 miESE (110°)8.1 mphMostly Cloudy
3:13 PM80.6 °F73.4 °F79 %29.80 in10.0 miESE (110°)6.9 mphScattered Clouds
3:58 PM81.7 °F74.1 °F78 %29.78 in10.0 miEast (80°)4.6 mphScattered Clouds
4:13 PM82.4 °F75.2 °F79 %29.81 in10.0 miESE (110°)5.8 mphMostly Cloudy
4:38 PM80.6 °F73.4 °F79 %29.82 in10.0 miEast (90°)8.1 mphScattered Clouds
4:58 PM80.6 °F74.1 °F81 %29.79 in10.0 miEast (80°)8.1 mphPartly Cloudy
5:58 PM79.2 °F73.9 °F84 %29.81 in10.0 miEast (80°)5.8 mphPartly Cloudy
6:58 PM78.1 °F74.7 °F89 %29.81 in10.0 miCalmScattered Clouds
7:58 PM78.3 °F73.9 °F87 %29.86 in10.0 miCalmScattered Clouds
8:58 PM78.3 °F74.8 °F89 %29.86 in10.0 miNNE (20°)1.2 mphMostly Cloudy
9:03 PM78.8 °F75.2 °F89 %29.88 in10.0 miEast (90°)4.6 mphMostly Cloudy
9:08 PM78.8 °F75.2 °F89 %29.88 in10.0 miEast (90°)4.6 mphMostly Cloudy
9:58 PM78.1 °F74.8 °F90 %29.86 in10.0 miNNE (20°)1.2 mphPartly Cloudy
10:58 PM77.4 °F75.0 °F92 %29.86 in10.0 miCalmScattered Clouds
11:18 PM77.0 °F75.2 °F94 %29.89 in10.0 miCalmMostly Cloudy
11:23 PM77.0 °F75.2 °F94 %29.89 in10.0 miNE (40°)1.2 mphMostly Cloudy
11:58 PM77.2 °F74.8 °F92 %29.86 in10.0 miCalmMostly Cloudy
Hourly data recorded from PGUA, located miles away from Inarajan, Guam







STORIES FROM OUR PARTNERS